,,,PA_Meas_PMT16A,,PR_Meas_QMR101_102,,RH_Meas_QMH101,,SR_Meas_QMS101,,TA_Meas_QMH101,,GenWind,,GenWind,
date,time,status,PA,status,PR,status,RH,status,SR,status,TA,status,DirAvg,status,SpdAvg,
2009-09-14, 00:00:04,VALID,1001.86,VALID,0,VALID,90.7467,VALID,0,VALID,22.2576,VALID,68,VALID,0.33125,
2009-09-14, 00:01:04,VALID,1001.85,VALID,0,VALID,90.9756,VALID,0,VALID,22.2592,VALID,68,VALID,0.0496094,
2009-09-14, 00:02:04,VALID,1001.85,VALID,0,VALID,91.235,VALID,0,VALID,22.2576,VALID,68,VALID,0.241406,
2009-09-14, 00:03:04,VALID,1001.85,VALID,0,VALID,91.2884,VALID,0,VALID,22.2771,VALID,61,VALID,0.691016,
2009-09-14, 00:04:04,VALID,1001.85,VALID,0,VALID,91.1358,VALID,0,VALID,22.2983,VALID,50,VALID,0.727734,
2009-09-14, 00:05:04,VALID,1001.82,VALID,0,VALID,91.1968,VALID,0,VALID,22.2771,VALID,42,VALID,0.828516,
2009-09-14, 00:06:04,VALID,1001.81,VALID,0,VALID,91.3342,VALID,0,VALID,22.3161,VALID,32,VALID,0.926562,
2009-09-14, 00:07:04,VALID,1001.81,VALID,0,VALID,91.1053,VALID,0,VALID,22.3551,VALID,21,VALID,1.06094,
2009-09-14, 00:08:04,VALID,1001.76,VALID,0,VALID,89.9914,VALID,0,VALID,22.3178,VALID,12,VALID,1.45625,
2009-09-14, 00:09:04,VALID,1001.73,VALID,0,VALID,89.9456,VALID,0,VALID,22.2007,VALID,319,VALID,0.813672,
2009-09-14, 00:10:04,VALID,1001.73,VALID,0,VALID,90.6399,VALID,0,VALID,22.1405,VALID,260,VALID,0.835547,
2009-09-14, 00:11:04,VALID,1001.7,VALID,0,VALID,91.1511,VALID,0,VALID,22.1795,VALID,252,VALID,0.553125,
2009-09-14, 00:12:04,VALID,1001.68,VALID,0,VALID,91.3418,VALID,0,VALID,22.2186,VALID,247,VALID,0.428906,
2009-09-14, 00:13:04,VALID,1001.65,VALID,0,VALID,91.3037,VALID,0,VALID,22.3178,VALID,241,VALID,0.414453,
2009-09-14, 00:14:04,VALID,1001.61,VALID,0,VALID,91.3037,VALID,0,VALID,22.3161,VALID,217,VALID,0.195703,
2009-09-14, 00:15:04,VALID,1001.58,VALID,0,VALID,91.2274,VALID,0,VALID,22.3551,VALID,217,VALID,0.0128906,
2009-09-14, 00:16:04,VALID,1001.55,VALID,0,VALID,91.2426,VALID,0,VALID,22.3551,VALID,217,VALID,0.469531,
2009-09-14, 00:17:04,VALID,1001.52,VALID,0,VALID,91.029,VALID,0,VALID,22.3551,VALID,217,VALID,0.625781,
2009-09-14, 00:18:04,VALID,1001.55,VALID,0,VALID,90.968,VALID,0,VALID,22.3551,VALID,45,VALID,0.960156,
2009-09-14, 00:19:04,VALID,1001.6,VALID,0,VALID,90.8001,VALID,0,VALID,22.3746,VALID,73,VALID,0.575781,
2009-09-14, 00:20:04,VALID,1001.61,VALID,0,VALID,90.678,VALID,0,VALID,22.3356,VALID,141,VALID,0.942578,
2009-09-14, 00:21:04,VALID,1001.59,VALID,0,VALID,90.6933,VALID,0,VALID,22.3356,VALID,104,VALID,0.722656,
2009-09-14, 00:22:04,VALID,1001.62,VALID,0,VALID,90.5483,VALID,0,VALID,22.3356,VALID,56,VALID,1.19102,
2009-09-14, 00:23:04,VALID,1001.65,VALID,0,VALID,90.0448,VALID,0,VALID,22.3161,VALID,59,VALID,1.08047,
2009-09-14, 00:24:04,VALID,1001.65,VALID,0,VALID,90.2584,VALID,0,VALID,22.2966,VALID,72,VALID,1.54414,
2009-09-14, 00:25:04,VALID,1001.66,VALID,0,VALID,90.678,VALID,0,VALID,22.3178,VALID,72,VALID,2.01367,
2009-09-14, 00:26:04,VALID,1001.66,VALID,0,VALID,90.8154,VALID,0,VALID,22.2771,VALID,70,VALID,2.04844,
2009-09-14, 00:27:04,VALID,1001.64,VALID,0,VALID,90.8306,VALID,0,VALID,22.2576,VALID,65,VALID,1.47266,
2009-09-14, 00:28:04,VALID,1001.6,VALID,0,VALID,91.029,VALID,0,VALID,22.2186,VALID,62,VALID,1.1668,
2009-09-14, 00:29:04,VALID,1001.58,VALID,0,VALID,91.0366,VALID,0,VALID,22.2186,VALID,52,VALID,1.20586,
2009-09-14, 00:30:04,VALID,1001.57,VALID,0,VALID,90.9985,VALID,0,VALID,22.1795,VALID,44,VALID,1.0293,
2009-09-14, 00:31:04,VALID,1001.58,VALID,0,VALID,90.8993,VALID,0,VALID,22.1617,VALID,43,VALID,0.459766,
2009-09-14, 00:32:04,VALID,1001.57,VALID,0,VALID,90.8611,VALID,0,VALID,22.1422,VALID,43,VALID,0.192578,
2009-09-14, 00:33:04,VALID,1001.56,VALID,0,VALID,90.9222,VALID,0,VALID,22.0625,VALID,44,VALID,0.474609,
2009-09-14, 00:34:04,VALID,1001.56,VALID,0,VALID,91.6546,VALID,0,VALID,22.1032,VALID,88,VALID,1.28203,
2009-09-14, 00:35:04,VALID,1001.54,VALID,0,VALID,91.5173,VALID,0,VALID,22.1405,VALID,111,VALID,1.08789,
2009-09-14, 00:36:04,VALID,1001.51,VALID,0,VALID,91.5478,VALID,0,VALID,22.2202,VALID,96,VALID,0.725781,
2009-09-14, 00:37:04,VALID,1001.44,VALID,0,VALID,91.5097,VALID,0,VALID,22.2381,VALID,96,VALID,0.610547,
2009-09-14, 00:38:04,VALID,1001.46,VALID,0,VALID,91.4791,VALID,0,VALID,22.2576,VALID,97,VALID,0.395312,
2009-09-14, 00:39:04,VALID,1001.42,VALID,0,VALID,91.296,VALID,0,VALID,22.2788,VALID,98,VALID,0.398047,
2009-09-14, 00:40:04,VALID,1001.47,VALID,0,VALID,91.3723,VALID,0,VALID,22.2771,VALID,147,VALID,0.830078,
2009-09-14, 00:41:04,VALID,1001.51,VALID,0,VALID,91.7157,VALID,0,VALID,22.3161,VALID,142,VALID,1.05156,
2009-09-14, 00:42:04,VALID,1001.47,VALID,0,VALID,91.7767,VALID,0,VALID,22.3746,VALID,165,VALID,1.23242,
2009-09-14, 00:43:04,VALID,1001.46,VALID,0,VALID,91.6317,VALID,0,VALID,22.4136,VALID,169,VALID,0.597266,
2009-09-14, 00:44:04,VALID,1001.42,VALID,0,VALID,91.6623,VALID,0,VALID,22.4738,VALID,210,VALID,0.668359,
2009-09-14, 00:45:04,VALID,1001.41,VALID,0,VALID,91.5097,VALID,0,VALID,22.4916,VALID,232,VALID,0.405469,
2009-09-14, 00:46:04,VALID,1001.41,VALID,0,VALID,91.2655,VALID,0,VALID,22.5111,VALID,232,VALID,0.0984375,
2009-09-14, 00:47:04,VALID,1001.45,VALID,0,VALID,90.5407,VALID,0,VALID,22.4721,VALID,34,VALID,0.874609,
2009-09-14, 00:48:04,VALID,1001.5,VALID,0,VALID,90.7162,VALID,0,VALID,22.4331,VALID,70,VALID,1.22812,
2009-09-14, 00:49:04,VALID,1001.51,VALID,0,VALID,90.6551,VALID,0.112286,VALID,22.4136,VALID,91,VALID,1.20547,
2009-09-14, 00:50:04,VALID,1001.49,VALID,0,VALID,90.6857,VALID,0,VALID,22.3941,VALID,94,VALID,0.994141,
2009-09-14, 00:51:04,VALID,1001.47,VALID,0,VALID,90.6017,VALID,0,VALID,22.3941,VALID,76,VALID,0.697266,
2009-09-14, 00:52:04,VALID,1001.43,VALID,0,VALID,90.5941,VALID,0,VALID,22.4136,VALID,87,VALID,0.242188,
2009-09-14, 00:53:04,VALID,1001.42,VALID,0,VALID,90.3805,VALID,0,VALID,22.4136,VALID,87,VALID,0.170703,
2009-09-14, 00:54:04,VALID,1001.41,VALID,0,VALID,90.3576,VALID,0,VALID,22.4136,VALID,87,VALID,0.185937,
2009-09-14, 00:55:04,VALID,1001.4,VALID,0,VALID,90.1668,VALID,0,VALID,22.3941,VALID,68,VALID,0.623438,
2009-09-14, 00:56:04,VALID,1001.39,VALID,0,VALID,90.1668,VALID,0,VALID,22.3746,VALID,65,VALID,0.522656,
2009-09-14, 00:57:04,VALID,1001.39,VALID,0,VALID,90.1134,VALID,0,VALID,22.3551,VALID,65,VALID,0.0699219,
2009-09-14, 00:58:04,VALID,1001.43,VALID,0,VALID,90.1821,VALID,0,VALID,22.3373,VALID,166,VALID,0.656641,
2009-09-14, 00:59:04,VALID,1001.44,VALID,0,VALID,90.3042,VALID,0,VALID,22.3161,VALID,166,VALID,0.274609,
2009-09-14, 01:00:04,VALID,1001.42,VALID,0,VALID,90.3118,VALID,0,VALID,22.3178,VALID,166,VALID,0,
2009-09-14, 01:01:04,VALID,1001.41,VALID,0,VALID,90.6399,VALID,0,VALID,22.3356,VALID,166,VALID,0.530078,
2009-09-14, 01:02:04,VALID,1001.4,VALID,0,VALID,90.8993,VALID,0,VALID,22.3746,VALID,166,VALID,0.650781,
2009-09-14, 01:03:04,VALID,1001.39,VALID,0,VALID,90.823,VALID,0,VALID,22.3941,VALID,166,VALID,0.203125,
2009-09-14, 01:04:04,VALID,1001.36,VALID,0,VALID,90.6551,VALID,0,VALID,22.3941,VALID,166,VALID,0,
2009-09-14, 01:05:04,VALID,1001.39,VALID,0,VALID,90.617,VALID,0,VALID,22.3746,VALID,146,VALID,0.502734,
2009-09-14, 01:06:04,VALID,1001.42,VALID,0,VALID,90.8001,VALID,0,VALID,22.3958,VALID,83,VALID,0.85625,
2009-09-14, 01:07:04,VALID,1001.41,VALID,0,VALID,90.7925,VALID,0,VALID,22.4136,VALID,83,VALID,0.480078,
2009-09-14, 01:08:04,VALID,1001.39,VALID,0,VALID,90.4797,VALID,0,VALID,22.4136,VALID,102,VALID,0.360156,
2009-09-14, 01:09:04,VALID,1001.41,VALID,0,VALID,90.5865,VALID,0,VALID,22.4136,VALID,192,VALID,1.06328,
2009-09-14, 01:10:04,VALID,1001.33,VALID,0,VALID,90.5636,VALID,0,VALID,22.4933,VALID,192,VALID,0.428906,
2009-09-14, 01:11:04,VALID,1001.33,VALID,0,VALID,90.4186,VALID,0,VALID,22.4916,VALID,191,VALID,0.30625,
2009-09-14, 01:12:04,VALID,1001.31,VALID,0,VALID,89.8083,VALID,0,VALID,22.5323,VALID,95,VALID,0.689453,
2009-09-14, 01:13:04,VALID,1001.29,VALID,0,VALID,89.6175,VALID,0,VALID,22.5323,VALID,95,VALID,0.623438,
2009-09-14, 01:14:04,VALID,1001.31,VALID,0,VALID,89.2437,VALID,0,VALID,22.5714,VALID,99,VALID,0.8125,
2009-09-14, 01:15:04,VALID,1001.31,VALID,0,VALID,88.8088,VALID,0,VALID,22.6104,VALID,106,VALID,0.708984,
2009-09-14, 01:16:04,VALID,1001.28,VALID,0,VALID,88.5189,VALID,0,VALID,22.6104,VALID,106,VALID,0.18125,
2009-09-14, 01:17:04,VALID,1001.32,VALID,0,VALID,88.2747,VALID,0,VALID,22.6104,VALID,106,VALID,0.156641,
2009-09-14, 01:18:04,VALID,1001.28,VALID,0,VALID,88.1526,VALID,0,VALID,22.5909,VALID,106,VALID,0.126172,
2009-09-14, 01:19:04,VALID,1001.25,VALID,0,VALID,87.6186,VALID,0,VALID,22.5714,VALID,360,VALID,0.762891,
2009-09-14, 01:20:04,VALID,1001.24,VALID,0,VALID,88.2671,VALID,0,VALID,22.4916,VALID,355,VALID,0.711328,
2009-09-14, 01:21:04,VALID,1001.25,VALID,0,VALID,88.4197,VALID,0,VALID,22.4738,VALID,317,VALID,0.594922,
2009-09-14, 01:22:04,VALID,1001.2,VALID,0,VALID,88.7325,VALID,0,VALID,22.3941,VALID,286,VALID,0.5,
2009-09-14, 01:23:04,VALID,1001.2,VALID,0,VALID,89.3581,VALID,0,VALID,22.4153,VALID,286,VALID,0.522266,
2009-09-14, 01:24:04,VALID,1001.16,VALID,0,VALID,89.4878,VALID,0,VALID,22.4153,VALID,332,VALID,0.734375,
2009-09-14, 01:25:04,VALID,1001.14,VALID,0,VALID,89.6251,VALID,0,VALID,22.3958,VALID,360,VALID,0.838281,
2009-09-14, 01:26:04,VALID,1001.16,VALID,0,VALID,89.8083,VALID,0,VALID,22.3746,VALID,360,VALID,0.802344,
2009-09-14, 01:27:04,VALID,1001.17,VALID,0,VALID,89.6175,VALID,0,VALID,22.3568,VALID,360,VALID,0.448828,
2009-09-14, 01:28:04,VALID,1001.17,VALID,0,VALID,89.6404,VALID,0,VALID,22.3178,VALID,354,VALID,0.289453,
2009-09-14, 01:29:04,VALID,1001.18,VALID,0,VALID,90.144,VALID,0,VALID,22.3178,VALID,218,VALID,0.687109,
2009-09-14, 01:30:04,VALID,1001.14,VALID,0,VALID,90.1974,VALID,0,VALID,22.3373,VALID,218,VALID,0.291016,
2009-09-14, 01:31:04,VALID,1001.12,VALID,0,VALID,90.2203,VALID,0,VALID,22.3161,VALID,323,VALID,0.521484,
2009-09-14, 01:32:04,VALID,1001.11,VALID,0,VALID,89.1292,VALID,0,VALID,22.2788,VALID,358,VALID,0.841406,
2009-09-14, 01:33:04,VALID,1001.07,VALID,0,VALID,88.5265,VALID,0,VALID,22.1422,VALID,24,VALID,0.870703,
2009-09-14, 01:34:04,VALID,1001.12,VALID,0,VALID,89.7701,VALID,0,VALID,22.0252,VALID,40,VALID,0.440234,
2009-09-14, 01:35:04,VALID,1001.1,VALID,0,VALID,90.4949,VALID,0,VALID,22.0252,VALID,40,VALID,0.422656,
2009-09-14, 01:36:04,VALID,1001.1,VALID,0,VALID,90.6094,VALID,0,VALID,22.0642,VALID,18,VALID,0.814844,
2009-09-14, 01:37:04,VALID,1001.11,VALID,0,VALID,90.5483,VALID,0,VALID,22.0235,VALID,3,VALID,0.835938,
2009-09-14, 01:38:04,VALID,1001.1,VALID,0,VALID,90.6551,VALID,0,VALID,21.9845,VALID,354,VALID,0.632031,
2009-09-14, 01:39:04,VALID,1001.13,VALID,0,VALID,90.9374,VALID,0,VALID,22.004,VALID,354,VALID,0.49375,
2009-09-14, 01:40:04,VALID,1001.13,VALID,0,VALID,90.8764,VALID,0,VALID,22.0252,VALID,354,VALID,0.877734,
2009-09-14, 01:41:04,VALID,1001.14,VALID,0,VALID,91.1053,VALID,0,VALID,22.0252,VALID,357,VALID,1.175,
2009-09-14, 01:42:04,VALID,1001.15,VALID,0,VALID,90.4644,VALID,0,VALID,21.9667,VALID,3,VALID,1.36211,
2009-09-14, 01:43:04,VALID,1001.13,VALID,0,VALID,90.9832,VALID,0,VALID,21.8887,VALID,12,VALID,1.06484,
2009-09-14, 01:44:04,VALID,1001.16,VALID,0,VALID,90.4491,VALID,0,VALID,21.8123,VALID,18,VALID,0.783203,
2009-09-14, 01:45:04,VALID,1001.14,VALID,0,VALID,90.5483,VALID,0,VALID,21.7131,VALID,21,VALID,0.223828,
2009-09-14, 01:46:04,VALID,1001.15,VALID,0,VALID,90.9603,VALID,0,VALID,21.6741,VALID,21,VALID,0.170703,
2009-09-14, 01:47:04,VALID,1001.15,VALID,0,VALID,91.5173,VALID,0,VALID,21.7538,VALID,21,VALID,0.120312,
2009-09-14, 01:48:04,VALID,1001.12,VALID,0,VALID,91.6012,VALID,0,VALID,21.7716,VALID,21,VALID,0.0105469,
2009-09-14, 01:49:04,VALID,1001.12,VALID,0,VALID,91.8301,VALID,0,VALID,21.8301,VALID,21,VALID,0.601172,
2009-09-14, 01:50:04,VALID,1001.1,VALID,0,VALID,91.7767,VALID,0,VALID,21.8692,VALID,20,VALID,0.930078,
2009-09-14, 01:51:04,VALID,1001.12,VALID,0,VALID,91.9903,VALID,0,VALID,21.9277,VALID,28,VALID,0.791797,
2009-09-14, 01:52:04,VALID,1001.11,VALID,0,VALID,91.3647,VALID,0,VALID,21.9488,VALID,36,VALID,0.803906,
2009-09-14, 01:53:04,VALID,1001.08,VALID,0,VALID,91.4944,VALID,0,VALID,21.9277,VALID,44,VALID,0.778125,
2009-09-14, 01:54:04,VALID,1001.07,VALID,0,VALID,91.5936,VALID,0,VALID,21.9683,VALID,44,VALID,0.823828,
2009-09-14, 01:55:04,VALID,1001.07,VALID,0,VALID,91.4105,VALID,0,VALID,22.0074,VALID,43,VALID,0.601172,
2009-09-14, 01:56:04,VALID,1001.06,VALID,0,VALID,90.7314,VALID,0,VALID,21.9683,VALID,311,VALID,0.476953,
2009-09-14, 01:57:04,VALID,1001.06,VALID,0,VALID,90.9832,VALID,0,VALID,21.9667,VALID,289,VALID,0.288672,
2009-09-14, 01:58:04,VALID,1001.07,VALID,0,VALID,91.1816,VALID,0,VALID,22.0057,VALID,121,VALID,0.683984,
2009-09-14, 01:59:04,VALID,1001.05,VALID,0,VALID,91.1511,VALID,0,VALID,22.004,VALID,110,VALID,0.871094,
2009-09-14, 02:00:04,VALID,1001.07,VALID,0,VALID,91.0366,VALID,0,VALID,22.0235,VALID,71,VALID,0.987109,
2009-09-14, 02:01:04,VALID,1001.09,VALID,0,VALID,90.266,VALID,0,VALID,22.043,VALID,58,VALID,1.17773,
2009-09-14, 02:02:04,VALID,1001.12,VALID,0,VALID,89.7625,VALID,0,VALID,22.0252,VALID,47,VALID,1.27617,
2009-09-14, 02:03:04,VALID,1001.1,VALID,0,VALID,89.7167,VALID,0,VALID,21.9455,VALID,51,VALID,1.32734,
2009-09-14, 02:04:04,VALID,1001.12,VALID,0,VALID,90.266,VALID,0,VALID,21.9472,VALID,65,VALID,1.31055,
2009-09-14, 02:05:04,VALID,1001.18,VALID,0,VALID,89.7014,VALID,0,VALID,21.887,VALID,110,VALID,1.44062,
2009-09-14, 02:06:04,VALID,1001.18,VALID,0,VALID,90.205,VALID,0,VALID,21.8692,VALID,123,VALID,1.35156,
2009-09-14, 02:07:04,VALID,1001.18,VALID,0,VALID,90.884,VALID,0,VALID,21.8692,VALID,94,VALID,1.35977,
2009-09-14, 02:08:04,VALID,1001.14,VALID,0,VALID,91.174,VALID,0,VALID,21.9277,VALID,79,VALID,1.02813,
2009-09-14, 02:09:04,VALID,1001.11,VALID,0,VALID,90.9756,VALID,0,VALID,21.9472,VALID,74,VALID,0.636719,
2009-09-14, 02:10:04,VALID,1001.1,VALID,0,VALID,91.1892,VALID,0,VALID,21.9667,VALID,73,VALID,0.694922,
2009-09-14, 02:11:04,VALID,1001.09,VALID,0,VALID,90.9222,VALID,0,VALID,21.965,VALID,68,VALID,0.783203,
2009-09-14, 02:12:04,VALID,1001.16,VALID,0,VALID,90.7162,VALID,0,VALID,21.9862,VALID,68,VALID,0.365625,
2009-09-14, 02:13:04,VALID,1001.15,VALID,0,VALID,90.7085,VALID,0,VALID,21.9455,VALID,344,VALID,0.671875,
2009-09-14, 02:14:04,VALID,1001.18,VALID,0,VALID,90.6399,VALID,0,VALID,21.9277,VALID,344,VALID,0.133594,
2009-09-14, 02:15:04,VALID,1001.17,VALID,0,VALID,90.7009,VALID,0,VALID,21.887,VALID,33,VALID,0.720312,
2009-09-14, 02:16:04,VALID,1001.18,VALID,0,VALID,90.3881,VALID,0,VALID,21.8496,VALID,98,VALID,0.943359,
2009-09-14, 02:17:04,VALID,1001.1,VALID,0,VALID,90.6933,VALID,0,VALID,21.8106,VALID,112,VALID,0.586328,
2009-09-14, 02:18:04,VALID,1001.12,VALID,0,VALID,90.9298,VALID,0,VALID,21.8106,VALID,133,VALID,0.444922,
2009-09-14, 02:19:04,VALID,1001.12,VALID,0,VALID,91.1968,VALID,0,VALID,21.8106,VALID,139,VALID,0.273047,
2009-09-14, 02:20:04,VALID,1001.14,VALID,0,VALID,91.2808,VALID,0,VALID,21.8301,VALID,139,VALID,0.275781,
2009-09-14, 02:21:04,VALID,1001.14,VALID,0,VALID,91.38,VALID,0,VALID,21.8692,VALID,139,VALID,0.184766,
2009-09-14, 02:22:04,VALID,1001.13,VALID,0,VALID,91.4334,VALID,0,VALID,21.8285,VALID,139,VALID,0.0957031,
2009-09-14, 02:23:04,VALID,1001.14,VALID,0,VALID,91.4105,VALID,0,VALID,21.848,VALID,139,VALID,0,
2009-09-14, 02:24:04,VALID,1001.14,VALID,0,VALID,91.5249,VALID,0,VALID,21.8285,VALID,139,VALID,0.334766,
2009-09-14, 02:25:04,VALID,1001.13,VALID,0,VALID,91.7691,VALID,0,VALID,21.8692,VALID,139,VALID,0.633594,
2009-09-14, 02:26:04,VALID,1001.13,VALID,0,VALID,91.7843,VALID,0,VALID,21.8675,VALID,140,VALID,0.446094,
2009-09-14, 02:27:04,VALID,1001.14,VALID,0,VALID,91.7843,VALID,0,VALID,21.9277,VALID,156,VALID,0.492969,
2009-09-14, 02:28:04,VALID,1001.14,VALID,0,VALID,91.8377,VALID,0,VALID,21.965,VALID,244,VALID,0.863281,
2009-09-14, 02:29:04,VALID,1001.18,VALID,0,VALID,91.7996,VALID,0,VALID,22.0235,VALID,263,VALID,0.641016,
2009-09-14, 02:30:04,VALID,1001.15,VALID,0,VALID,91.6394,VALID,0,VALID,22.0837,VALID,336,VALID,0.972656,
2009-09-14, 02:31:04,VALID,1001.15,VALID,0,VALID,91.1358,VALID,0,VALID,22.1032,VALID,5,VALID,1.19453,
2009-09-14, 02:32:04,VALID,1001.17,VALID,0,VALID,90.3728,VALID,0,VALID,22.0235,VALID,43,VALID,1.35312,
2009-09-14, 02:33:04,VALID,1001.17,VALID,0,VALID,90.3271,VALID,0,VALID,21.9667,VALID,43,VALID,0.878125,
2009-09-14, 02:34:04,VALID,1001.18,VALID,0,VALID,90.5941,VALID,0,VALID,21.9082,VALID,43,VALID,0.257031,
2009-09-14, 02:35:04,VALID,1001.19,VALID,0,VALID,90.5178,VALID,0,VALID,21.8496,VALID,35,VALID,0.421875,
2009-09-14, 02:36:04,VALID,1001.17,VALID,0,VALID,91.1206,VALID,0,VALID,21.8301,VALID,356,VALID,1.08867,
2009-09-14, 02:37:04,VALID,1001.13,VALID,0,VALID,91.0977,VALID,0,VALID,21.8496,VALID,3,VALID,1.37188,
2009-09-14, 02:38:04,VALID,1001.12,VALID,0,VALID,91.3113,VALID,0,VALID,21.8692,VALID,3,VALID,1.20352,
2009-09-14, 02:39:04,VALID,1001.16,VALID,0,VALID,91.0671,VALID,0,VALID,21.8692,VALID,11,VALID,0.372656,
2009-09-14, 02:40:04,VALID,1001.2,VALID,0,VALID,90.9909,VALID,0,VALID,21.8496,VALID,116,VALID,0.774219,
2009-09-14, 02:41:04,VALID,1001.19,VALID,0,VALID,91.1663,VALID,0,VALID,21.8692,VALID,117,VALID,0.976563,
2009-09-14, 02:42:04,VALID,1001.17,VALID,0,VALID,90.9985,VALID,0,VALID,21.8285,VALID,119,VALID,0.89375,
2009-09-14, 02:43:04,VALID,1001.13,VALID,0,VALID,90.9985,VALID,0,VALID,21.8285,VALID,119,VALID,0.545313,
2009-09-14, 02:44:04,VALID,1001.1,VALID,0,VALID,90.884,VALID,0,VALID,21.8496,VALID,119,VALID,0.273047,
2009-09-14, 02:45:04,VALID,1001.15,VALID,0,VALID,90.762,VALID,0,VALID,21.8301,VALID,119,VALID,0.177344,
2009-09-14, 02:46:04,VALID,1001.17,VALID,0,VALID,90.6475,VALID,0,VALID,21.77,VALID,119,VALID,0.144141,
2009-09-14, 02:47:04,VALID,1001.18,VALID,0,VALID,90.8611,VALID,0,VALID,21.7716,VALID,119,VALID,0.279687,
2009-09-14, 02:48:04,VALID,1001.18,VALID,0,VALID,90.8993,VALID,0,VALID,21.7911,VALID,119,VALID,0,
2009-09-14, 02:49:04,VALID,1001.18,VALID,0,VALID,90.823,VALID,0,VALID,21.7716,VALID,119,VALID,0,
2009-09-14, 02:50:04,VALID,1001.16,VALID,0,VALID,90.8611,VALID,0,VALID,21.7505,VALID,119,VALID,0.025,
2009-09-14, 02:51:04,VALID,1001.16,VALID,0,VALID,90.9069,VALID,0,VALID,21.7521,VALID,119,VALID,0.192188,
2009-09-14, 02:52:04,VALID,1001.15,VALID,0,VALID,90.8077,VALID,0,VALID,21.7115,VALID,119,VALID,0.376563,
2009-09-14, 02:53:04,VALID,1001.14,VALID,0,VALID,90.4797,VALID,0,VALID,21.653,VALID,119,VALID,0.48125,
2009-09-14, 02:54:04,VALID,1001.15,VALID,0,VALID,90.6704,VALID,0,VALID,21.614,VALID,119,VALID,0.399609,
2009-09-14, 02:55:04,VALID,1001.17,VALID,0,VALID,91.1816,VALID,0,VALID,21.614,VALID,119,VALID,0.494922,
2009-09-14, 02:56:04,VALID,1001.2,VALID,0,VALID,91.0443,VALID,0,VALID,21.614,VALID,117,VALID,0.507031,
2009-09-14, 02:57:04,VALID,1001.25,VALID,0,VALID,91.502,VALID,0,VALID,21.614,VALID,106,VALID,0.608984,
2009-09-14, 02:58:04,VALID,1001.3,VALID,0,VALID,91.4181,VALID,0,VALID,21.6351,VALID,111,VALID,1.39219,
2009-09-14, 02:59:04,VALID,1001.3,VALID,0,VALID,91.7691,VALID,0,VALID,21.6725,VALID,105,VALID,1.17852,
2009-09-14, 03:00:05,VALID,1001.29,VALID,0,VALID,91.9598,VALID,0,VALID,21.731,VALID,101,VALID,1.34961,
2009-09-14, 03:01:05,VALID,1001.26,VALID,0,VALID,92.0056,VALID,0,VALID,21.77,VALID,75,VALID,1.1957,
2009-09-14, 03:02:05,VALID,1001.25,VALID,0,VALID,92.059,VALID,0,VALID,21.809,VALID,74,VALID,0.882422,
2009-09-14, 03:03:05,VALID,1001.26,VALID,0,VALID,91.8606,VALID,0,VALID,21.809,VALID,75,VALID,0.610547,
2009-09-14, 03:04:05,VALID,1001.27,VALID,0,VALID,91.7614,VALID,0,VALID,21.8285,VALID,75,VALID,0.394531,
2009-09-14, 03:05:05,VALID,1001.28,VALID,0,VALID,91.7309,VALID,0,VALID,21.7895,VALID,75,VALID,0.192969,
2009-09-14, 03:06:05,VALID,1001.27,VALID,0,VALID,91.792,VALID,0,VALID,21.8106,VALID,75,VALID,0.0117188,
2009-09-14, 03:07:05,VALID,1001.26,VALID,0,VALID,91.914,VALID,0,VALID,21.7895,VALID,75,VALID,0.165234,
2009-09-14, 03:08:05,VALID,1001.28,VALID,0,VALID,91.9598,VALID,0,VALID,21.8496,VALID,75,VALID,0,
2009-09-14, 03:09:05,VALID,1001.3,VALID,0,VALID,91.9903,VALID,0,VALID,21.809,VALID,75,VALID,0.0105469,
2009-09-14, 03:10:05,VALID,1001.28,VALID,0,VALID,92.2421,VALID,0,VALID,21.8285,VALID,75,VALID,0.4375,
2009-09-14, 03:11:05,VALID,1001.3,VALID,0,VALID,92.2955,VALID,0,VALID,21.8887,VALID,75,VALID,0.276563,
2009-09-14, 03:12:05,VALID,1001.32,VALID,0,VALID,92.265,VALID,0,VALID,21.887,VALID,75,VALID,0.309375,
2009-09-14, 03:13:05,VALID,1001.28,VALID,0,VALID,92.1429,VALID,0,VALID,21.9065,VALID,75,VALID,0,
2009-09-14, 03:14:05,VALID,1001.26,VALID,0,VALID,92.1506,VALID,0,VALID,21.9472,VALID,75,VALID,0.214844,
2009-09-14, 03:15:05,VALID,1001.25,VALID,0,VALID,92.1887,VALID,0,VALID,21.926,VALID,343,VALID,0.432031,
2009-09-14, 03:16:05,VALID,1001.3,VALID,0,VALID,92.1887,VALID,0,VALID,21.9472,VALID,343,VALID,0.116406,
2009-09-14, 03:17:05,VALID,1001.29,VALID,0,VALID,92.2803,VALID,0,VALID,21.9455,VALID,343,VALID,0.00117188,
2009-09-14, 03:18:05,VALID,1001.31,VALID,0,VALID,92.3794,VALID,0,VALID,21.9845,VALID,343,VALID,0.253516,
2009-09-14, 03:19:05,VALID,1001.31,VALID,0,VALID,92.3566,VALID,0,VALID,22.004,VALID,343,VALID,0.193359,
2009-09-14, 03:20:05,VALID,1001.32,VALID,0,VALID,92.2345,VALID,0,VALID,22.0235,VALID,343,VALID,0.235938,
2009-09-14, 03:21:05,VALID,1001.31,VALID,0,VALID,91.8606,VALID,0,VALID,21.965,VALID,343,VALID,0,
2009-09-14, 03:22:05,VALID,1001.34,VALID,0,VALID,91.8988,VALID,0,VALID,21.926,VALID,343,VALID,0.0828125,
2009-09-14, 03:23:05,VALID,1001.32,VALID,0,VALID,92.0743,VALID,0,VALID,21.926,VALID,343,VALID,0.585547,
2009-09-14, 03:24:05,VALID,1001.32,VALID,0,VALID,92.4405,VALID,0,VALID,21.965,VALID,113,VALID,0.919922,
2009-09-14, 03:25:05,VALID,1001.31,VALID,0,VALID,92.204,VALID,0,VALID,21.9845,VALID,135,VALID,0.933594,
2009-09-14, 03:26:05,VALID,1001.35,VALID,0,VALID,92.1124,VALID,0,VALID,22.004,VALID,135,VALID,0.782422,
2009-09-14, 03:27:05,VALID,1001.36,VALID,0,VALID,91.998,VALID,0,VALID,22.0235,VALID,135,VALID,0.557031,
2009-09-14, 03:28:05,VALID,1001.34,VALID,0,VALID,91.9522,VALID,0,VALID,22.043,VALID,143,VALID,0.528516,
2009-09-14, 03:29:05,VALID,1001.36,VALID,0,VALID,91.8683,VALID,0,VALID,22.043,VALID,166,VALID,1.01953,
2009-09-14, 03:30:05,VALID,1001.36,VALID,0,VALID,91.6241,VALID,0,VALID,22.0413,VALID,128,VALID,0.79375,
2009-09-14, 03:31:05,VALID,1001.38,VALID,0,VALID,91.4486,VALID,0,VALID,22.0625,VALID,128,VALID,0.839063,
2009-09-14, 03:32:05,VALID,1001.37,VALID,0,VALID,90.8154,VALID,0,VALID,22.043,VALID,95,VALID,0.817187,
2009-09-14, 03:33:05,VALID,1001.39,VALID,0,VALID,90.472,VALID,0,VALID,22.0057,VALID,94,VALID,0.934766,
2009-09-14, 03:34:05,VALID,1001.34,VALID,0,VALID,90.7696,VALID,0,VALID,21.965,VALID,94,VALID,0.688672,
2009-09-14, 03:35:05,VALID,1001.38,VALID,0,VALID,90.8459,VALID,0,VALID,21.9845,VALID,94,VALID,0.269922,
2009-09-14, 03:36:05,VALID,1001.36,VALID,0,VALID,90.7162,VALID,0,VALID,21.9845,VALID,94,VALID,0.29375,
2009-09-14, 03:37:05,VALID,1001.33,VALID,0,VALID,90.7467,VALID,0,VALID,21.9845,VALID,94,VALID,0.531641,
2009-09-14, 03:38:05,VALID,1001.34,VALID,0,VALID,90.8154,VALID,0,VALID,21.9862,VALID,72,VALID,0.499609,
2009-09-14, 03:39:05,VALID,1001.35,VALID,0,VALID,90.7391,VALID,0,VALID,21.9845,VALID,72,VALID,0.399219,
2009-09-14, 03:40:05,VALID,1001.38,VALID,0,VALID,90.3118,VALID,0,VALID,21.926,VALID,72,VALID,0.408984,
2009-09-14, 03:41:05,VALID,1001.38,VALID,0,VALID,90.2126,VALID,0.112286,VALID,21.8675,VALID,72,VALID,0.181641,
2009-09-14, 03:42:05,VALID,1001.4,VALID,0,VALID,90.4568,VALID,0,VALID,21.809,VALID,73,VALID,0.396875,
2009-09-14, 03:43:05,VALID,1001.42,VALID,0,VALID,90.8306,VALID,0,VALID,21.8285,VALID,73,VALID,0.187891,
2009-09-14, 03:44:05,VALID,1001.41,VALID,0,VALID,90.7467,VALID,0,VALID,21.8285,VALID,73,VALID,0.362109,
2009-09-14, 03:45:05,VALID,1001.41,VALID,0,VALID,91.0214,VALID,0.112286,VALID,21.848,VALID,34,VALID,0.91875,
2009-09-14, 03:46:05,VALID,1001.45,VALID,0,VALID,90.8764,VALID,0,VALID,21.8675,VALID,34,VALID,0.292188,